Newcastle, WY

12:30 PM MDT on August 26, 2016 (GMT -0600)
Mondell

Weather History for KECS - July, 2013

Change the Weather History Date:

Tuesday, July 9, 2013

  Actual Average (KCUT) Record (KCUT)
Temperature  
Mean Temperature 68 °F 65 °F  
Max Temperature 82 °F 79 °F 97 °F (1954)
Min Temperature 55 °F 52 °F 33 °F (1959)
Degree Days  
Heating Degree Days 0 2  
Month to date heating degree days 22  
Since 1 June heating degree days 242  
Since 1 July heating degree days 22  
Cooling Degree Days 4 2  
Month to date cooling degree days 18  
Year to date cooling degree days 44  
Since 1 June cooling degree days 43  
Growing Degree Days 18 (Base 50)    
Moisture  
Dew Point 52 °F    
Average Humidity 56    
Maximum Humidity 94    
Minimum Humidity 28    
Precipitation  
Precipitation 0.00 in 0.08 in 1.21 in (1974)
Month to date precipitation 0.68  
Year to date precipitation 11.01  
Sea Level Pressure  
Sea Level Pressure 30.15 in    
Wind  
Wind Speed 5 mph (NW)    
Max Wind Speed 13 mph    
Max Gust Speed 22 mph    
Visibility 10 miles    
Events Thunderstorm    
T = Trace of Precipitation, MM = Missing Value Source: NWS Daily Summary

Daily Weather History Graph

Daily Weather History Graph

Search for Another Location

Airport or City:

Trip Planner

Search our weather history database for the weather conditions in past years. The results will help you decide how hot, cold, wet, or windy it might be!

Date:

Astronomy

Jul. 09, 2013 Rise Set
Actual Time 5:24 AM MDT 8:40 PM MDT
Civil Twilight 4:48 AM MDT 9:15 PM MDT
Nautical Twilight 4:02 AM MDT 10:01 PM MDT
Astronomical Twilight 3:06 AM MDT 10:58 PM MDT
Moon 6:55 AM MDT (7/9) 9:13 PM MDT (7/9)
Length of Visible Light 16h 27m
Length of Day
15h 16m
New Moon, 2% of the Moon is Illuminated
Jul 9
New Moon
Jul 15
First Quarter
Jul 22
Full
Jul 29
Last Quarter
Aug 6
New

Hourly Weather History & Observations

Time (MDT) Temp. Heat Index Dew Point Humidity Pressure Visibility Wind Dir Wind Speed Gust Speed Precip Events Conditions
12:15 AM 66.2 °F - 50.0 °F 56% 30.09 in 10.0 mi North 12.7 mph 17.3 mph N/A Thunderstorm Scattered Clouds
12:35 AM 68.0 °F - 46.4 °F 46% 30.05 in 10.0 mi NNE 9.2 mph 21.9 mph N/A   Clear
12:55 AM 66.2 °F - 50.0 °F 56% 30.06 in 10.0 mi NW 3.5 mph - N/A   Clear
1:15 AM 64.4 °F - 50.0 °F 59% 30.05 in 10.0 mi WSW 3.5 mph - N/A   Clear
1:35 AM 62.6 °F - 50.0 °F 63% 30.06 in 10.0 mi NW 5.8 mph - N/A   Clear
1:55 AM 60.8 °F - 51.8 °F 72% 30.05 in 10.0 mi South 5.8 mph - N/A   Clear
2:15 AM 60.8 °F - 51.8 °F 72% 30.05 in 10.0 mi SSE 3.5 mph - N/A   Clear
2:35 AM 59.0 °F - 51.8 °F 77% 30.06 in 10.0 mi SSE 3.5 mph - N/A   Clear
2:55 AM 59.0 °F - 51.8 °F 77% 30.06 in 10.0 mi South 4.6 mph - N/A   Clear
3:15 AM 59.0 °F - 53.6 °F 82% 30.09 in 10.0 mi ESE 4.6 mph - N/A   Clear
3:35 AM 57.2 °F - 53.6 °F 88% 30.10 in 10.0 mi Calm Calm - N/A   Clear
3:55 AM 57.2 °F - 53.6 °F 88% 30.10 in 10.0 mi Calm Calm - N/A   Clear
4:15 AM 57.2 °F - 53.6 °F 88% 30.11 in 10.0 mi NNW 3.5 mph - N/A   Clear
4:35 AM 55.4 °F - 53.6 °F 94% 30.12 in 10.0 mi North 4.6 mph - N/A   Clear
4:55 AM 57.2 °F - 51.8 °F 82% 30.13 in 10.0 mi North 8.1 mph - N/A   Clear
5:15 AM 59.0 °F - 51.8 °F 77% 30.12 in 10.0 mi North - - N/A   Clear
5:35 AM 59.0 °F - 51.8 °F 77% 30.13 in 10.0 mi North - - N/A   Clear
5:55 AM 59.0 °F - 51.8 °F 77% 30.14 in 10.0 mi Calm Calm - N/A   Clear
6:15 AM 55.4 °F - 53.6 °F 94% 30.14 in 10.0 mi Calm Calm - N/A   Clear
6:35 AM 57.2 °F - 53.6 °F 88% 30.14 in 10.0 mi Calm Calm - N/A   Clear
6:55 AM 59.0 °F - 53.6 °F 82% 30.15 in 10.0 mi Calm Calm - N/A   Clear
7:15 AM 60.8 °F - 53.6 °F 77% 30.15 in 10.0 mi Calm Calm - N/A   Clear
7:35 AM 62.6 °F - 53.6 °F 72% 30.16 in 10.0 mi Calm Calm - N/A   Clear
7:55 AM 62.6 °F - 53.6 °F 72% 30.16 in 10.0 mi Calm Calm - N/A   Clear
8:15 AM 64.4 °F - 55.4 °F 73% 30.16 in 10.0 mi Calm Calm - N/A   Clear
8:35 AM 64.4 °F - 55.4 °F 73% 30.16 in 10.0 mi Calm Calm - N/A   Clear
8:55 AM 68.0 °F - 55.4 °F 64% 30.17 in 10.0 mi SSW 3.5 mph - N/A   Clear
9:15 AM 68.0 °F - 55.4 °F 64% 30.17 in 10.0 mi Calm Calm - N/A   Clear
9:35 AM 68.0 °F - 55.4 °F 64% 30.17 in 10.0 mi SSW 3.5 mph - N/A   Clear
9:55 AM 69.8 °F - 55.4 °F 60% 30.17 in 10.0 mi Calm Calm - N/A   Clear
10:15 AM 71.6 °F - 53.6 °F 53% 30.17 in 10.0 mi NW 3.5 mph - N/A   Clear
10:35 AM 71.6 °F - 53.6 °F 53% 30.17 in 10.0 mi NW 3.5 mph - N/A   Clear
10:55 AM 71.6 °F - 53.6 °F 53% 30.17 in 10.0 mi WNW 3.5 mph - N/A   Clear
11:15 AM 73.4 °F - 53.6 °F 50% 30.17 in 10.0 mi Calm Calm - N/A   Clear
11:35 AM 73.4 °F - 53.6 °F 50% 30.17 in 10.0 mi Calm Calm - N/A   Clear
11:55 AM 77.0 °F - 53.6 °F 44% 30.17 in 10.0 mi North - - N/A   Clear
12:15 PM 77.0 °F - 51.8 °F 41% 30.17 in 10.0 mi Calm Calm - N/A   Clear
12:35 PM 78.8 °F - 50.0 °F 36% 30.17 in 10.0 mi Calm Calm - N/A   Clear
12:55 PM 78.8 °F - 48.2 °F 34% 30.16 in 10.0 mi Calm Calm - N/A   Clear
1:15 PM 78.8 °F - 51.8 °F 39% 30.16 in 10.0 mi Calm Calm - N/A   Clear
1:35 PM 80.6 °F 80.3 °F 53.6 °F 39% 30.16 in 10.0 mi West 6.9 mph - N/A   Clear
1:55 PM 80.6 °F - 51.8 °F 37% 30.16 in 10.0 mi WSW 3.5 mph - N/A   Clear
2:15 PM 80.6 °F - 50.0 °F 34% 30.16 in 10.0 mi North - - N/A   Clear
2:35 PM 82.4 °F - 48.2 °F 30% 30.16 in 10.0 mi West 6.9 mph - N/A   Clear
2:55 PM 82.4 °F - 48.2 °F 30% 30.16 in 10.0 mi West 9.2 mph - N/A   Clear
3:15 PM 82.4 °F - 48.2 °F 30% 30.16 in 10.0 mi WNW 10.4 mph - N/A   Clear
3:35 PM 82.4 °F - 46.4 °F 28% 30.16 in 10.0 mi WNW 6.9 mph - N/A   Clear
3:55 PM 82.4 °F - 50.0 °F 32% 30.16 in 10.0 mi NNW 6.9 mph - N/A   Clear
4:15 PM 82.4 °F - 50.0 °F 32% 30.16 in 10.0 mi NW 11.5 mph - N/A   Clear
4:35 PM 82.4 °F - 48.2 °F 30% 30.16 in 10.0 mi NNW 6.9 mph - N/A   Clear
4:55 PM 82.4 °F - 51.8 °F 35% 30.16 in 10.0 mi WNW 10.4 mph 17.3 mph N/A   Clear
5:15 PM 82.4 °F - 50.0 °F 32% 30.16 in 10.0 mi North - - N/A   Clear
5:35 PM 82.4 °F - 50.0 °F 32% 30.16 in 10.0 mi NW 11.5 mph 16.1 mph N/A   Clear
5:55 PM 82.4 °F - 51.8 °F 35% 30.16 in 10.0 mi NW 12.7 mph - N/A   Clear
6:15 PM 80.6 °F - 50.0 °F 34% 30.16 in 10.0 mi WNW 11.5 mph 17.3 mph N/A   Clear
6:35 PM 80.6 °F - 50.0 °F 34% 30.16 in 10.0 mi NW 12.7 mph - N/A   Clear
6:55 PM 80.6 °F - 50.0 °F 34% 30.16 in 10.0 mi North - - N/A   Clear
7:15 PM 80.6 °F - 50.0 °F 34% 30.16 in 10.0 mi North - - N/A   Clear
7:35 PM 78.8 °F - 51.8 °F 39% 30.17 in 10.0 mi NNW 6.9 mph - N/A   Clear
7:55 PM 78.8 °F - 51.8 °F 39% 30.17 in 10.0 mi NNW 9.2 mph - N/A   Clear
8:15 PM 77.0 °F - 51.8 °F 41% 30.17 in 10.0 mi North 8.1 mph - N/A   Clear
8:35 PM 73.4 °F - 51.8 °F 47% 30.17 in 10.0 mi NNW 6.9 mph - N/A   Clear
8:55 PM 71.6 °F - 51.8 °F 50% 30.18 in 10.0 mi North 3.5 mph - N/A   Clear
9:15 PM 69.8 °F - 51.8 °F 53% 30.19 in 10.0 mi SE 4.6 mph - N/A   Clear
9:35 PM 69.8 °F - 55.4 °F 60% 30.21 in 10.0 mi SSE 6.9 mph - N/A   Clear
9:55 PM 68.0 °F - 55.4 °F 64% 30.22 in 10.0 mi SE 3.5 mph - N/A   Clear
10:15 PM 68.0 °F - 55.4 °F 64% 30.23 in 10.0 mi ESE 5.8 mph - N/A   Scattered Clouds
10:35 PM 68.0 °F - 55.4 °F 64% 30.24 in 10.0 mi Calm Calm - N/A   Scattered Clouds
10:55 PM 68.0 °F - 55.4 °F 64% 30.23 in 10.0 mi Calm Calm - N/A   Scattered Clouds
11:15 PM 68.0 °F - 51.8 °F 56% 30.24 in 10.0 mi Calm Calm - N/A   Clear
11:35 PM 64.4 °F - 55.4 °F 73% 30.24 in 10.0 mi Calm Calm - N/A   Clear
11:55 PM 68.0 °F - 51.8 °F 56% 30.24 in 10.0 mi Calm Calm - N/A   Clear